SCP
1 1 1 1 0 0 0 0 0 0 0 0 0 0 0 0 0 0 0 0 0 0 0 0 0 0 0 0 0 0 0 0 0 0 0 0 0 0 0 0 0 0 0
1 1 1 1 0 0 0 0 0 0 0 0 0 0 0 0 0 0 0 0 0 0 0 0 0 0 0 0 0 0 0 0 0 0 0 0 0 0 0 0 0 0 0
1 1 1 1 0 0 0 0 0 0 0 0 0 0 0 0 0 0 0 0 0 0 0 0 0 0 0 0 0 0 0 0 0 0 0 0 0 0 0 0 0 0 0
0 1 1 1 0 0 0 0 0 0 0 0 0 0 0 0 0 0 0 0 0 0 0 0 0 0 0 0 0 0 0 0 0 0 0 0 0 0 0 0 0 0 0
0 0 0 0 0 0 0 0 0 0 0 0 0 0 0 0 0 0 0 0 0 0 0 0 0 0 0 0 0 0 0 0 0 0 0 0 0 0 0 0 0 0 0
0 0 0 0 0 0 0 0 0 0 0 0 0 0 0 0 0 0 0 0 0 0 0 0 0 0 0 0 0 0 0 0 0 0 0 0 0 0 0 0 0 0 0
0 0 0 0 0 0 0 0 0 0 0 0 0 0 0 0 0 0 0 0 0 0 0 0 0 0 0 0 0 0 0 0 0 0 0 0 0 0 0 0 0 0 0
0 0 0 0 1 1 0 0 0 0 0 0 0 0 0 0 0 0 0 0 0 0 0 0 0 0 0 0 0 0 0 0 0 0 0 0 0 0 0 0 0 0 0
0 0 0 0 1 1 1 0 0 0 0 0 0 0 0 0 0 0 0 0 0 0 0 0 0 0 0 0 0 0 0 0 0 0 0 0 0 0 0 0 0 0 0
0 0 0 0 1 1 0 0 0 0 0 0 0 0 0 0 0 0 0 0 0 0 0 0 0 0 0 0 0 0 0 0 0 0 0 0 0 0 0 0 0 0 0
0 0 0 0 0 0 0 0 0 0 0 0 0 0 0 0 0 0 0 0 0 0 0 0 0 0 0 0 0 0 0 0 0 0 0 0 0 0 0 0 0 0 0
0 0 0 0 0 0 0 0 0 0 0 0 0 0 0 0 0 0 0 0 0 0 0 0 0 0 0 0 0 0 0 0 0 0 0 0 0 0 0 0 0 0 0
0 0 0 0 0 0 0 0 0 0 0 0 0 0 0 0 0 0 0 0 0 0 0 0 0 0 0 0 0 0 0 0 0 0 0 0 0 0 0 0 0 0 0
0 0 0 0 0 0 0 0 0 0 0 0 0 0 0 0 0 0 0 0 0 0 0 0 0 0 0 0 0 0 0 0 0 0 0 0 0 0 0 0 0 0 0
0 0 0 0 0 0 0 0 0 0 0 0 0 0 0 0 0 0 0 0 0 0 0 0 0 0 0 0 0 0 0 0 0 0 0 0 0 0 0 0 0 0 0
0 0 0 0 0 0 0 0 0 0 0 0 0 0 0 0 0 0 0 0 0 0 0 0 0 0 0 0 0 0 0 0 0 0 0 0 0 0 0 0 0 0 0
0 0 0 0 0 0 0 0 0 0 0 0 0 0 0 0 0 0 0 0 0 0 0 0 0 0 0 0 0 0 0 0 0 0 0 0 0 0 0 0 0 0 0
0 0 0 0 0 0 0 0 0 0 0 0 0 0 0 0 0 0 0 0 0 0 0 0 0 0 0 0 0 0 0 0 0 0 0 0 0 0 0 0 0 0 0
0 0 0 0 0 0 0 0 0 0 0 0 0 0 0 0 0 0 0 0 0 0 0 0 0 0 0 0 0 0 0 0 0 0 0 0 0 0 0 0 0 0 0
0 0 0 0 0 0 0 0 0 0 0 0 0 0 0 0 0 0 0 0 0 0 0 0 0 0 0 0 0 0 0 0 0 0 0 0 0 0 0 0 0 0 0
0 0 0 0 0 0 0 0 0 0 0 0 0 0 0 0 0 0 0 0 0 0 0 0 0 0 0 0 0 0 0 0 0 0 0 0 0 0 0 0 0 0 0
0 0 0 0 0 0 0 0 0 0 0 0 0 0 0 0 0 0 0 0 0 0 0 0 0 0 0 0 0 0 0 0 0 0 0 0 0 0 0 0 0 0 0
0 0 0 0 0 0 0 0 0 0 0 0 0 0 0 0 0 0 0 0 0 0 0 0 0 0 0 0 0 0 0 0 0 0 0 0 0 0 0 0 0 0 0
0 0 0 0 0 0 0 0 0 0 0 0 0 0 0 0 0 0 0 0 0 0 0 0 0 0 0 0 0 0 0 0 0 0 0 0 0 0 0 0 0 0 0
0 0 0 0 0 0 0 0 0 0 0 0 0 0 0 0 0 0 0 0 0 0 0 0 0 0 0 0 0 0 0 0 0 0 0 0 0 0 0 0 0 0 0
0 0 0 0 0 0 0 0 0 0 0 0 0 0 0 0 0 0 0 0 0 0 0 0 0 0 0 0 0 0 0 0 0 0 0 0 0 0 0 0 0 0 0
Wind_Speed
4 4 4 3 3 3 2 2 2 1 1 1 1 1 1 1 0 0 0 0 1 1 1 1 1 1 0 0 0 1 1 2 2 1 0 1 1 1 2 1 1 2 2
4 4 4 4 4 3 3 2 2 2 2 1 1 2 1 1 1 1 1 1 1 1 1 1 2 1 1 1 1 1 1 1 2 0 1 1 1 1 1 2 2 2 1
5 5 4 4 4 4 3 3 3 3 3 3 3 3 2 2 1 1 1 1 1 1 1 1 1 2 1 1 1 1 1 1 1 2 0 1 1 1 1 2 3 2 2
6 6 5 4 4 4 4 4 4 3 3 3 3 3 2 3 2 2 2 2 2 2 2 2 2 2 2 1 2 2 2 2 2 2 1 1 1 1 1 1 2 2 2
6 6 5 5 5 5 4 4 4 4 4 3 4 4 4 3 3 3 3 3 2 3 3 4 4 6 6 4 3 3 3 3 2 2 2 1 1 1 1 0 2 1 2
6 6 6 5 5 5 4 4 4 4 4 5 5 5 5 4 5 6 4 3 3 3 4 4 5 6 8 9 10 9 7 4 3 2 1 1 1 1 1 1 1 2 1
6 6 5 5 5 4 5 6 5 5 5 6 5 6 6 6 7 8 8 5 5 5 4 4 4 5 6 5 8 10 9 9 6 3 3 2 1 1 1 2 2 2 1
6 6 5 5 6 5 6 6 5 4 5 5 5 5 5 6 7 8 9 7 6 6 5 5 5 5 5 5 6 6 6 6 6 4 3 2 2 1 2 2 2 2 2
6 5 5 5 6 6 6 5 4 5 5 5 4 5 5 5 7 7 7 5 6 6 6 6 5 5 6 7 6 6 6 5 7 9 8 8 9 8 5 3 3 3 2
5 5 5 5 6 6 6 5 5 5 6 5 6 5 6 6 8 8 7 4 5 5 5 6 8 7 7 7 5 5 5 3 4 6 7 8 7 8 8 4 2 3 2
5 5 5 5 6 6 5 5 5 6 6 5 6 5 6 6 8 9 8 4 4 4 4 3 4 8 8 8 6 4 4 3 3 4 4 5 5 5 5 4 3 2 2
6 6 6 5 5 6 6 5 5 5 6 5 5 5 5 5 6 7 9 7 5 5 3 2 3 8 9 9 7 7 8 6 4 4 4 4 3 3 3 3 3 2 1
8 7 7 7 6 5 6 6 5 4 4 3 3 3 3 3 5 8 8 8 8 4 3 5 6 8 7 6 8 9 6 4 4 4 3 2 2 2 2 3 4 3 4
9 7 7 7 6 6 5 4 4 3 3 4 3 3 2 3 3 3 3 4 5 5 4 5 7 8 7 6 5 5 4 3 2 2 1 2 2 2 2 2 2 2 3
8 7 7 6 7 6 6 5 4 2 3 4 3 3 3 2 1 2 3 2 2 3 3 3 4 4 4 4 3 3 3 3 3 2 2 2 2 2 2 2 1 2 2
8 7 5 5 5 5 6 6 10 7 7 7 6 5 3 3 4 5 6 6 6 7 5 4 3 3 2 2 2 2 3 3 2 2 2 2 2 2 2 2 2 1 1
8 7 5 5 6 5 5 6 5 5 9 9 7 6 5 5 6 7 7 8 7 7 5 3 2 2 1 1 1 1 1 2 2 2 2 2 2 2 1 2 2 2 2
7 7 7 5 5 5 5 4 4 5 3 3 4 6 6 6 6 7 8 7 5 4 3 2 1 1 1 1 1 1 2 2 2 2 2 2 2 1 1 2 1 1 1
6 5 5 5 4 5 4 4 4 4 3 2 2 3 4 6 7 6 6 4 3 2 1 2 1 1 1 1 1 1 2 2 2 2 2 2 2 1 1 2 2 2 1
5 8 7 5 5 4 4 4 4 4 3 3 2 2 2 3 3 2 2 2 2 2 2 2 1 2 2 2 2 2 2 2 2 2 2 2 2 1 1 2 1 1 1
5 6 9 6 5 5 4 4 4 4 3 3 2 2 5 3 2 2 2 1 1 1 1 1 1 2 2 2 2 2 2 2 2 2 2 2 3 2 2 2 2 2 2
4 5 4 5 4 4 4 4 4 4 4 4 2 2 5 3 2 2 1 1 1 1 2 2 2 1 1 1 1 1 1 1 2 2 2 2 2 2 2 2 2 2 2
5 5 5 4 4 6 5 4 4 4 4 4 4 3 3 2 2 2 1 1 1 1 1 2 2 2 1 1 1 1 1 1 2 1 1 2 2 2 2 2 3 2 2
5 5 5 5 4 4 5 4 4 4 4 4 4 3 3 3 2 2 2 1 1 1 2 2 2 3 3 2 1 1 0 1 1 1 1 1 2 2 2 2 3 3 3
5 5 5 5 5 4 4 4 4 4 4 4 4 3 3 3 2 2 2 2 2 2 2 2 2 2 3 3 1 0 1 2 2 1 1 1 2 2 3 3 3 3 3
4 5 4 4 4 4 4 4 4 4 4 3 3 3 3 3 3 2 2 2 2 2 2 2 3 3 3 2 1 1 1 2 3 3 2 1 1 2 3 3 4 4 4
Wind_Direction
154 150 148 146 145 136 128 124 110 86 70 79 71 65 69 51 323 115 304 58 86 4 360 29 314 300 311 1 80 139 144 152 184 289 338 360 35 22 17 47 81 80 71
142 133 131 128 124 116 106 97 89 77 62 61 55 58 60 53 74 111 125 87 85 47 9 23 340 356 45 43 77 89 110 124 141 170 346 7 15 16 45 53 58 77 79
129 124 115 112 112 108 101 90 80 72 61 51 53 57 44 41 55 90 118 103 95 81 53 47 358 26 39 45 75 84 85 78 95 118 36 6 5 24 46 46 53 37 52
122 118 113 115 110 106 101 91 83 73 64 52 44 42 38 42 46 51 78 83 71 55 50 54 40 41 46 56 71 75 89 81 81 93 74 32 10 345 56 67 53 31 36
116 115 117 115 111 100 95 91 84 75 64 51 49 41 36 46 51 63 81 86 78 62 46 47 57 60 57 61 73 75 85 86 83 83 72 49 26 26 19 24 89 58 36
114 118 118 115 109 104 102 94 85 75 65 60 53 49 46 44 51 66 85 79 74 72 63 53 59 54 55 62 67 71 78 91 96 84 64 60 5 0 24 69 101 77 31
115 117 118 119 115 111 106 93 87 81 73 64 57 58 55 48 59 68 75 79 73 68 66 61 61 55 56 61 64 64 60 61 75 101 87 59 40 348 80 75 81 89 102
114 113 113 116 112 105 99 97 92 85 79 72 61 57 61 50 59 73 78 73 70 64 61 66 73 60 61 71 72 65 57 50 52 65 76 52 52 51 105 124 122 90 50
117 117 119 121 116 112 108 103 97 91 81 72 64 60 61 44 53 71 75 73 69 58 53 56 66 66 62 75 75 70 56 38 49 58 55 50 51 52 60 73 66 77 50
127 125 123 121 121 121 117 109 100 95 88 79 66 55 62 54 54 70 75 79 74 62 50 48 56 67 67 74 79 81 73 47 45 42 39 36 38 41 46 61 85 92 85
124 120 120 118 119 118 112 106 106 100 92 82 74 59 54 52 53 63 70 80 89 81 65 48 45 63 67 66 71 74 83 81 60 55 45 34 31 31 29 34 51 90 95
117 112 110 108 113 113 109 103 103 105 98 86 77 64 44 38 45 57 63 69 83 87 76 52 52 63 62 61 61 63 71 71 61 54 47 32 23 14 9 21 33 42 63
115 106 97 88 83 92 104 108 100 96 101 95 87 79 50 30 33 51 62 65 72 78 75 73 67 66 61 56 55 60 60 59 60 56 44 13 346 349 9 15 14 20 19
116 109 103 95 85 72 73 84 97 99 107 109 105 97 74 47 31 28 44 56 62 67 66 63 62 59 54 47 43 42 43 52 68 62 29 356 2 16 17 16 14 11 20
115 112 107 103 103 89 75 61 79 82 126 131 130 127 119 95 24 75 88 74 78 89 84 60 50 45 42 33 28 26 29 35 41 32 35 24 15 16 2 0 25 32 33
121 117 116 117 111 109 105 80 51 63 77 92 111 120 99 113 113 93 83 84 87 100 89 74 62 58 59 49 38 23 24 26 24 30 33 24 14 7 357 355 14 33 5
129 129 126 127 130 130 125 119 103 59 59 68 84 97 99 102 97 92 90 87 85 91 80 76 69 61 51 42 34 34 16 1 16 31 27 10 358 356 3 358 359 3 344
128 131 131 134 137 139 136 131 129 127 108 57 43 66 79 83 87 88 89 82 64 57 71 79 68 49 44 44 34 24 16 12 13 7 3 356 358 358 357 347 341 335 321
130 133 133 133 134 135 133 128 123 122 118 112 78 46 60 73 73 75 85 82 94 75 60 56 53 50 36 44 51 52 43 23 5 0 356 351 349 359 346 327 324 331 338
134 140 140 138 134 133 132 132 130 126 124 126 129 123 89 80 75 63 65 81 91 92 85 74 55 56 53 51 53 54 47 25 8 5 348 340 337 343 332 324 328 328 312
138 147 143 139 141 142 140 139 142 140 138 139 148 147 139 124 124 117 102 94 105 118 116 107 85 69 66 62 59 48 41 5 349 344 341 340 344 341 330 328 326 326 325
139 140 138 140 140 141 142 144 143 143 145 141 131 127 137 119 121 125 126 135 140 140 142 130 110 99 107 107 96 72 44 12 348 343 342 339 340 337 338 345 342 332 325
135 133 131 132 135 138 138 138 141 146 147 146 143 138 140 146 149 152 161 166 143 123 121 121 117 105 91 90 93 103 97 305 288 297 330 337 337 335 335 328 324 325 317
133 135 134 132 129 131 133 134 138 143 145 147 147 148 154 159 162 166 171 164 143 127 124 126 132 136 131 116 97 86 310 289 290 280 290 315 328 330 331 327 320 315 307
124 129 133 136 134 135 135 135 138 142 144 150 154 155 160 163 168 173 171 163 152 146 144 141 139 141 144 142 136 309 318 333 335 325 304 316 328 327 325 321 319 314 307
123 130 136 138 135 138 142 144 144 145 148 154 156 161 168 171 172 171 168 158 154 155 154 154 163 165 163 167 191 223 304 324 332 336 332 324 323 318 324 318 323 322 314